{"data":{"norad_id":47293,"intl_designator":"2020-100AM","name":"ONEWEB-0147","alt_names":[],"object_type":"PAYLOAD","status":"ACTIVE","operator":null,"country":"UK","launch_date":"2020-12-18","launch_site_code":"VOSTO","launch_vehicle":null,"mission":null,"orbit_class":"UNKNOWN","rcs_meters":null,"size_class":null,"mass_kg":null,"dimensions":null,"purposes":["comms"],"wikipedia_slug":null,"has_3d_model":false,"image_url":null,"decayed_at":null,"tle_current":{"epoch":"2026-09-20T03:20:12.625728Z","epoch_age_seconds":49306,"freshness":"FRESH","line1":"1 47293U 20100AM  26263.13903502 -.00000269  00000+0 -78320-3 0  9991","line2":"2 47293  87.8988 331.7976 0001831  94.0669 266.0669 13.12442272277029","mean_motion":13.12442272,"eccentricity":0.0001831,"inclination_deg":87.8988,"raan_deg":331.7976,"arg_perigee_deg":94.0669,"mean_anomaly_deg":266.0669,"bstar":-0.0007832,"rev_number":27702,"period_min":109.71911151609,"perigee_km":1212.3360283389,"apogee_km":1215.1161686055,"semimajor_km":7591.8630984722,"source":"CELESTRAK","updated_at":"2026-09-20T09:00:44.583358Z"}}}